Weather History for Manitowoc, WI

Change the Weather History Date:

Thursday, February 7, 2013

  Actual Average Record
Temperature  
Mean Temperature 27 °F -  
Max Temperature 33 °F 26 °F 46 °F (2009)
Min Temperature 21 °F 11 °F -11 °F (1962)
Degree Days  
Heating Degree Days 38    
Moisture  
Dew Point 28 °F    
Average Humidity 88    
Maximum Humidity 100    
Minimum Humidity 86    
Precipitation  
Precipitation 0.26 in - - ()
Sea Level Pressure  
Sea Level Pressure 30.03 in    
Wind  
Wind Speed 10 mph (East)    
Max Wind Speed 22 mph    
Max Gust Speed 30 mph    
Visibility 2 miles    
Events      
Averages and records for this station are not official NWS values.
T = Trace of Precipitation, MM = Missing Value Source: NWS Daily Summary

Daily Weather History Graph

Daily Weather History Graph

Search for Another Location

Airport:

Trip Planner

Search our weather history database for the weather conditions in past years. The results will help you decide how hot, cold, wet, or windy it might be!

Date:

Astronomy

Feb. 07, 2013 Rise Set
Actual Time 7:00 AM CST 5:09 PM CST
Civil Twilight 6:30 AM CST 5:39 PM CST
Nautical Twilight 5:56 AM CST 6:14 PM CST
Astronomical Twilight 5:22 AM CST 6:47 PM CST
Moon 4:43 AM CST (2/7) 2:30 PM CST (2/7)
Length of Visible Light 11h 09m
Length of Day
10h 08m
Waning Crescent, 9% of the Moon is Illuminated
Feb 7
Waning Crescent
Feb 10
New
Feb 17
First Quarter
Feb 25
Full
Mar 4
Last Quarter

Hourly Weather History & Observations

Time (CST) Temp. Windchill Dew Point Humidity Pressure Visibility Wind Dir Wind Speed Gust Speed Precip Events Conditions
12:35 AM 32.0 °F 25.6 °F 30.2 °F 93% 30.11 in 1.5 mi SE 6.9 mph - 0.01 in   Overcast
12:55 AM 33.8 °F 27.0 °F 30.2 °F 87% 30.09 in 2.5 mi SE 8.1 mph - 0.01 in   Overcast
1:15 AM 33.8 °F 25.3 °F 30.2 °F 87% 30.09 in 4.0 mi SSE 11.5 mph - N/A   Overcast
1:35 AM 33.8 °F 25.8 °F 30.2 °F 87% 30.09 in 4.0 mi SSE 10.4 mph - N/A   Overcast
1:55 AM 33.8 °F 25.3 °F 30.2 °F 87% 30.09 in 5.0 mi South 11.5 mph - N/A   Overcast
2:15 AM 33.8 °F 24.8 °F 30.2 °F 87% 30.09 in 4.0 mi South 12.7 mph - N/A   Overcast
2:35 AM 33.8 °F 25.8 °F 30.2 °F 87% 30.08 in 2.0 mi South 10.4 mph - N/A   Overcast
2:55 AM 33.8 °F 25.3 °F 30.2 °F 87% 30.07 in 2.5 mi South 11.5 mph - 0.01 in   Overcast
3:15 AM 33.8 °F 25.8 °F 30.2 °F 87% 30.07 in 2.0 mi South 10.4 mph - N/A   Overcast
3:35 AM 33.8 °F 24.3 °F 30.2 °F 87% 30.06 in 2.5 mi South 13.8 mph - N/A   Overcast
4:15 AM 33.8 °F 23.9 °F 30.2 °F 87% 30.06 in 2.0 mi South 15.0 mph - N/A   Overcast
4:35 AM 33.8 °F 24.8 °F 30.2 °F 87% 30.06 in 2.5 mi South 12.7 mph 17.3 mph N/A   Overcast
4:55 AM 33.8 °F 26.4 °F 30.2 °F 87% 30.06 in 3.0 mi South 9.2 mph - N/A   Overcast
5:15 AM 33.8 °F 25.8 °F 30.2 °F 87% 30.05 in 3.0 mi South 10.4 mph - N/A   Overcast
5:35 AM 33.8 °F 25.3 °F 30.2 °F 87% 30.05 in 3.0 mi South 11.5 mph - N/A   Overcast
5:55 AM 33.8 °F 25.8 °F 30.2 °F 87% 30.05 in 3.0 mi SSE 10.4 mph - N/A   Overcast
6:15 AM 33.8 °F 26.4 °F 30.2 °F 87% 30.05 in 3.0 mi South 9.2 mph - N/A   Overcast
6:35 AM 33.8 °F 26.4 °F 30.2 °F 87% 30.05 in 3.0 mi SSE 9.2 mph - N/A   Overcast
6:55 AM 33.8 °F 25.8 °F 30.2 °F 87% 30.05 in 2.5 mi South 10.4 mph - N/A   Overcast
7:15 AM 33.8 °F 27.0 °F 30.2 °F 87% 30.05 in 1.5 mi South 8.1 mph - N/A   Overcast
7:35 AM 33.8 °F 27.0 °F 30.2 °F 87% 30.06 in 1.8 mi SSE 8.1 mph - N/A   Overcast
7:55 AM 33.8 °F 26.4 °F 30.2 °F 87% 30.06 in 2.0 mi South 9.2 mph - N/A   Overcast
8:15 AM 33.8 °F 27.0 °F 30.2 °F 87% 30.06 in 1.8 mi SSE 8.1 mph - N/A   Overcast
8:35 AM 33.8 °F 27.7 °F 30.2 °F 87% 30.06 in 2.0 mi SSE 6.9 mph - N/A   Overcast
8:55 AM 33.8 °F 29.6 °F 30.2 °F 87% 30.06 in 2.0 mi SSE 4.6 mph - N/A   Overcast
9:15 AM 33.8 °F 30.8 °F 30.2 °F 87% 30.05 in 2.5 mi SE 3.5 mph - N/A   Overcast
9:35 AM 33.8 °F - 30.2 °F 87% 30.05 in 2.5 mi Calm Calm - N/A   Overcast
9:55 AM 33.8 °F - 30.2 °F 87% 30.04 in 2.5 mi Calm Calm - N/A   Overcast
10:15 AM 33.8 °F 30.8 °F 30.2 °F 87% 30.04 in 2.0 mi ENE 3.5 mph - N/A   Overcast
10:35 AM 33.8 °F - 30.2 °F 87% 30.05 in 2.5 mi Calm Calm - N/A   Overcast
10:55 AM 33.8 °F - 32.0 °F 93% 30.05 in 2.5 mi Calm Calm - N/A   Overcast
11:15 AM 33.8 °F - 30.2 °F 87% 30.04 in 2.5 mi Calm Calm - N/A   Overcast
11:35 AM 33.8 °F 30.8 °F 30.2 °F 87% 30.03 in 2.5 mi ENE 3.5 mph - N/A   Overcast
11:55 AM 33.8 °F - 30.2 °F 87% 30.02 in 1.5 mi Calm Calm - 0.01 in   Overcast
12:15 PM 33.8 °F 30.8 °F 30.2 °F 87% 30.02 in 1.0 mi ENE 3.5 mph - 0.01 in   Overcast
12:35 PM 32.0 °F 25.6 °F 30.2 °F 93% 30.02 in 0.5 mi East 6.9 mph - 0.04 in   Overcast
12:55 PM 32.0 °F 25.6 °F 30.2 °F 93% 30.01 in 1.0 mi East 6.9 mph - 0.05 in   Overcast
1:15 PM 32.0 °F 24.2 °F 30.2 °F 93% 30.01 in 0.8 mi East 9.2 mph - 0.02 in   Overcast
1:35 PM 32.0 °F 23.0 °F 28.4 °F 87% 29.99 in 0.8 mi East 11.5 mph - 0.04 in   Overcast
1:55 PM 32.0 °F 23.0 °F 30.2 °F 93% 29.99 in 0.8 mi East 11.5 mph - 0.06 in   Overcast
2:15 PM 32.0 °F 23.0 °F 28.4 °F 87% 29.99 in 1.0 mi East 11.5 mph - 0.02 in   Overcast
2:35 PM 32.0 °F 23.6 °F 32.0 °F 100% 29.98 in 1.0 mi East 10.4 mph - 0.04 in   Overcast
2:55 PM 32.0 °F 23.0 °F 28.4 °F 87% 29.98 in 1.0 mi East 11.5 mph - 0.06 in   Overcast
3:15 PM 32.0 °F 24.2 °F 30.2 °F 93% 29.98 in 1.2 mi East 9.2 mph - 0.01 in   Overcast
3:35 PM 32.0 °F 25.6 °F 30.2 °F 93% 29.97 in 1.0 mi ENE 6.9 mph - 0.02 in   Overcast
3:55 PM 32.0 °F 25.6 °F 30.2 °F 93% 29.96 in 1.0 mi NE 6.9 mph - 0.02 in   Overcast
4:15 PM 32.0 °F 26.4 °F 30.2 °F 93% 29.97 in 1.2 mi NE 5.8 mph - 0.01 in   Overcast
4:35 PM 32.0 °F 26.4 °F 30.2 °F 93% 29.97 in 1.2 mi NNE 5.8 mph - 0.01 in   Overcast
4:55 PM 32.0 °F 24.8 °F 30.2 °F 93% 29.97 in 1.0 mi NNE 8.1 mph - 0.02 in   Overcast
5:15 PM 32.0 °F 24.8 °F 28.4 °F 87% 29.97 in 0.8 mi NNE 8.1 mph - N/A   Overcast
5:35 PM 32.0 °F 23.6 °F 30.2 °F 93% 29.97 in 1.5 mi NNE 10.4 mph - 0.01 in   Overcast
5:55 PM 32.0 °F 23.6 °F 28.4 °F 87% 29.98 in 1.5 mi NNE 10.4 mph - 0.01 in   Overcast
6:15 PM 30.2 °F 18.9 °F 28.4 °F 93% 29.98 in 1.5 mi North 16.1 mph 21.9 mph N/A   Overcast
6:35 PM 28.4 °F 16.2 °F 26.6 °F 93% 29.99 in 1.2 mi North 17.3 mph 25.3 mph N/A   Overcast
6:55 PM 28.4 °F 14.7 °F 24.8 °F 86% 29.98 in 1.2 mi North 21.9 mph 29.9 mph N/A   Overcast
7:15 PM 28.4 °F 15.8 °F 24.8 °F 86% 29.99 in 1.2 mi North 18.4 mph 26.5 mph N/A   Overcast
7:35 PM 26.6 °F 14.3 °F 24.8 °F 93% 30.00 in 1.2 mi North 16.1 mph 24.2 mph N/A   Overcast
7:55 PM 24.8 °F 11.9 °F 21.2 °F 86% 30.00 in 1.2 mi North 16.1 mph 21.9 mph 0.01 in   Overcast
8:15 PM 23.0 °F 9.6 °F 19.4 °F 86% 30.01 in 1.2 mi North 16.1 mph 21.9 mph N/A   Overcast
8:35 PM 21.2 °F 7.3 °F 17.6 °F 86% 30.02 in 1.2 mi North 16.1 mph 25.3 mph N/A   Overcast
8:55 PM 21.2 °F 7.3 °F 17.6 °F 86% 30.03 in 1.8 mi North 16.1 mph 24.2 mph N/A   Overcast
9:15 PM 21.2 °F 6.8 °F 17.6 °F 86% 30.03 in 1.8 mi North 17.3 mph 25.3 mph N/A   Overcast
9:35 PM 21.2 °F 6.8 °F 17.6 °F 86% 30.03 in 1.5 mi North 17.3 mph 26.5 mph N/A   Overcast
9:55 PM 21.2 °F 7.3 °F 17.6 °F 86% 30.03 in 1.5 mi North 16.1 mph 24.2 mph N/A   Overcast
10:15 PM 21.2 °F 6.8 °F 17.6 °F 86% 30.04 in 1.5 mi North 17.3 mph 24.2 mph N/A   Overcast
10:35 PM 21.2 °F 7.3 °F 17.6 °F 86% 30.05 in 1.0 mi NNW 16.1 mph 23.0 mph N/A   Overcast
10:55 PM 21.2 °F 6.8 °F 17.6 °F 86% 30.05 in 1.0 mi North 17.3 mph 25.3 mph N/A   Overcast
11:15 PM 21.2 °F 6.8 °F 17.6 °F 86% 30.05 in 1.2 mi North 17.3 mph 23.0 mph N/A   Overcast
11:35 PM 21.2 °F 6.8 °F 17.6 °F 86% 30.05 in 1.2 mi NNW 17.3 mph 26.5 mph N/A   Overcast
11:55 PM 21.2 °F 7.3 °F 17.6 °F 86% 30.05 in 1.5 mi North 16.1 mph 23.0 mph N/A   Overcast